Location: Unspecified
(0.0000°N, 0.0000°E)
Time: 17:12:38
(UTC+00:00)

Tiangong 1 - Visible Passes

Search period start: 20 November 2017 00:00
Search period end: 30 November 2017 00:00
Orbit: 285 x 309 km, 42.8° (Epoch: 20 November)

Date Brightness Start Highest point End Pass type
(mag) Time Alt. Az. Time Alt. Az. Time Alt. Az.
20 Nov 1.8 04:48:50 18° NNW 04:50:19 35° NE 04:52:41 10° ESE visible
21 Nov 1.0 04:56:09 23° WNW 04:57:21 42° SW 04:59:48 10° SSE visible
22 Nov 3.0 05:03:18 10° WSW 05:04:18 12° SW 05:05:21 10° SSW visible
